カタログに戻る

COSMOS 2039

運用中ナビゲーションPO
NORAD 20233·PAYLOAD·🇷🇺 Russia

打ち上げ Sep 14, 1989 から Plesetsk Cosmodrome

Loading…

次のパス (今後24時間)

TLE

最新Source: Space-Track

元期: Sep 14, 2026, 15:14 UTC

1 20233U 89074B   26257.63523491  .00000032  00000-0  11027-3 0  9992
2 20233  82.5796 126.5714 0014595 149.7740 237.8033 12.66285863709921

AllMySatでCOSMOS 2039をリアルタイム追跡

Download on the App Store